| time (UTC) | temp C | wind direction | speed KPH | gust KPH | rain 1hr cm | rain 24hr cm | rain mn cm | humidity % | barometer mb |
| 20260508121545 | 8 | 263 | 6.4 | 9.7 | 0.00 | 2.24 | 0.00 | 94 | 1003.1 |
| 20260508120045 | 8 | 290 | 3.2 | 6.4 | 0.00 | 2.24 | 0.00 | 95 | 1003.2 |
| 20260508114547 | 7 | 295 | 3.2 | 6.4 | 0.00 | 2.24 | 0.00 | 95 | 1003.2 |
| 20260508113040 | 7 | 128 | 0.0 | 1.6 | 0.00 | 2.24 | 0.00 | 97 | 1003.1 |
| 20260508111543 | 5 | 99 | 0.0 | 3.2 | 0.00 | 2.24 | 0.00 | 97 | 1003.0 |
| 20260508110041 | 5 | 0 | 0.0 | 0.0 | 0.00 | 2.24 | 0.00 | 97 | 1003.1 |
| 20260508104541 | 4 | 0 | 0.0 | 0.0 | 0.00 | 2.24 | 0.00 | 96 | 1003.0 |
| 20260508103042 | 4 | 0 | 0.0 | 0.0 | 0.00 | 2.24 | 0.00 | 97 | 1003.0 |
| 20260508101538 | 3 | 0 | 0.0 | 0.0 | 0.00 | 2.24 | 0.00 | 97 | 1002.8 |
| 20260508100038 | 3 | 0 | 0.0 | 0.0 | 0.00 | 2.24 | 0.00 | 97 | 1002.7 |
| 20260508094603 | 3 | 0 | 0.0 | 0.0 | 0.00 | 2.34 | 0.00 | 97 | 1002.8 |
| 20260508093039 | 3 | 0 | 0.0 | 1.6 | 0.00 | 2.34 | 0.00 | 97 | 1002.6 |
| 20260508091542 | 3 | 210 | 0.0 | 1.6 | 0.00 | 2.34 | 0.00 | 97 | 1002.7 |
| 20260508090043 | 3 | 0 | 0.0 | 1.6 | 0.00 | 2.34 | 0.00 | 97 | 1002.7 |
| 20260508084540 | 3 | 210 | 0.0 | 1.6 | 0.00 | 2.41 | 0.00 | 97 | 1002.4 |
| 20260508083038 | 3 | 0 | 0.0 | 3.2 | 0.00 | 2.41 | 0.00 | 97 | 1002.6 |
| 20260508081558 | 3 | 98 | 0.0 | 1.6 | 0.00 | 2.39 | 0.00 | 97 | 1002.4 |
| 20260508080040 | 2 | 0 | 0.0 | 0.0 | 0.00 | 2.39 | 0.00 | 97 | 1002.4 |
| 20260508074538 | 2 | 0 | 0.0 | 1.6 | 0.00 | 2.49 | 0.00 | 97 | 1002.4 |
| 20260508073042 | 2 | 358 | 1.6 | 3.2 | 0.00 | 2.49 | 0.00 | 97 | 1002.4 |
| 20260508071547 | 1 | 0 | 0.0 | 0.0 | 0.00 | 2.49 | 0.00 | 96 | 1002.9 |
| 20260508070044 | 2 | 0 | 0.0 | 0.0 | 0.00 | 2.49 | 0.00 | 95 | 1002.6 |
| 20260508064539 | 2 | 0 | 0.0 | 0.0 | 0.00 | 2.51 | 0.00 | 95 | 1002.6 |
| 20260508063047 | 2 | 0 | 0.0 | 0.0 | 0.00 | 2.51 | 0.00 | 96 | 1002.5 |
| 20260508061534 | 2 | 0 | 0.0 | 0.0 | 0.00 | 2.51 | 0.00 | 95 | 1002.5 |
| 20260508060036 | 2 | 0 | 0.0 | 0.0 | 0.00 | 2.51 | 0.00 | 94 | 1002.6 |
| 20260508054544 | 3 | 0 | 0.0 | 0.0 | 0.00 | 2.54 | 0.00 | 94 | 1003.0 |
| 20260508053040 | 3 | 0 | 0.0 | 0.0 | 0.00 | 2.54 | 0.00 | 94 | 1002.8 |
| 20260508051540 | 5 | 0 | 0.0 | 0.0 | 0.00 | 2.54 | 0.00 | 94 | 1002.6 |
| 20260508050039 | 6 | 0 | 0.0 | 1.6 | 0.00 | 2.54 | 0.00 | 93 | 1003.0 |
| 20260508044538 | 6 | 0 | 1.6 | 4.8 | 0.00 | 2.54 | 0.00 | 93 | 1003.1 |
| 20260508043040 | 6 | 198 | 0.0 | 1.6 | 0.00 | 2.54 | 0.00 | 94 | 1002.9 |
| 20260508041538 | 6 | 262 | 1.6 | 4.8 | 0.00 | 2.54 | 0.00 | 94 | 1002.9 |
| 20260508040045 | 6 | 238 | 1.6 | 4.8 | 0.00 | 2.54 | 0.00 | 93 | 1002.8 |
| 20260508034539 | 7 | 216 | 0.0 | 3.2 | 0.00 | 2.54 | 0.00 | 93 | 1002.8 |
| 20260508033033 | 7 | 243 | 1.6 | 4.8 | 0.00 | 2.54 | 0.00 | 92 | 1003.1 |
| 20260508031541 | 7 | 240 | 1.6 | 4.8 | 0.00 | 2.54 | 0.00 | 92 | 1003.1 |
| 20260508030039 | 7 | 281 | 3.2 | 6.4 | 0.00 | 2.54 | 0.00 | 92 | 1003.1 |
| 20260508024547 | 7 | 264 | 3.2 | 6.4 | 0.00 | 2.54 | 2.54 | 92 | 1003.2 |
| 20260508023039 | 7 | 240 | 4.8 | 8.0 | 0.00 | 2.54 | 2.54 | 92 | 1003.3 |
| 20260508021539 | 7 | 243 | 3.2 | 9.7 | 0.00 | 2.54 | 2.54 | 92 | 1003.3 |
| 20260508020040 | 8 | 203 | 3.2 | 8.0 | 0.00 | 2.54 | 2.54 | 92 | 1003.3 |
| 20260508014542 | 8 | 245 | 3.2 | 9.7 | 0.00 | 2.54 | 2.54 | 91 | 1003.3 |
| 20260508013042 | 8 | 226 | 3.2 | 9.7 | 0.00 | 2.54 | 2.54 | 91 | 1003.4 |
| 20260508011538 | 8 | 229 | 0.0 | 3.2 | 0.00 | 2.54 | 2.54 | 91 | 1003.1 |
| 20260508010042 | 8 | 229 | 0.0 | 3.2 | 0.00 | 2.54 | 2.54 | 91 | 1003.2 |
| 20260508004544 | 8 | 218 | 1.6 | 4.8 | 0.00 | 2.54 | 2.54 | 91 | 1003.0 |
| 20260508003039 | 8 | 284 | 1.6 | 4.8 | 0.00 | 2.54 | 2.54 | 90 | 1002.9 |
| 20260508001538 | 8 | 259 | 3.2 | 8.0 | 0.00 | 2.54 | 2.54 | 89 | 1002.9 |
| 20260508000041 | 8 | 251 | 3.2 | 11.3 | 0.00 | 2.54 | 2.54 | 89 | 1003.0 |
| 20260507234534 | 9 | 259 | 4.8 | 9.7 | 0.00 | 2.54 | 2.54 | 90 | 1002.8 |
| 20260507233047 | 9 | 250 | 4.8 | 9.7 | 0.00 | 2.54 | 2.54 | 89 | 1002.6 |
| 20260507231539 | 10 | 283 | 6.4 | 11.3 | 0.00 | 2.54 | 2.54 | 87 | 1002.9 |
| 20260507230045 | 11 | 272 | 4.8 | 9.7 | 0.00 | 2.54 | 2.54 | 87 | 1002.6 |
| 20260507224542 | 12 | 268 | 8.0 | 16.1 | 0.00 | 2.54 | 2.54 | 85 | 1002.4 |
| 20260507223038 | 12 | 270 | 3.2 | 12.9 | 0.00 | 2.54 | 2.54 | 88 | 1002.6 |
| 20260507221540 | 11 | 253 | 3.2 | 11.3 | 0.00 | 2.54 | 2.54 | 90 | 1002.6 |
| 20260507220039 | 11 | 232 | 3.2 | 6.4 | 0.00 | 2.54 | 2.54 | 91 | 1002.4 |
| 20260507214549 | 11 | 243 | 4.8 | 11.3 | 0.00 | 2.54 | 2.54 | 91 | 1002.3 |
| 20260507213043 | 10 | 278 | 8.0 | 11.3 | 0.00 | 2.54 | 2.54 | 91 | 1002.3 |
| 20260507211535 | 10 | 297 | 4.8 | 9.7 | 0.00 | 2.54 | 2.54 | 93 | 1002.5 |
| 20260507210040 | 10 | 216 | 4.8 | 16.1 | 0.00 | 2.54 | 2.54 | 95 | 1002.6 |
| 20260507204539 | 10 | 214 | 3.2 | 9.7 | 0.00 | 2.54 | 2.54 | 96 | 1002.5 |
| 20260507203047 | 10 | 246 | 3.2 | 9.7 | 0.00 | 2.54 | 2.54 | 96 | 1002.4 |
| 20260507201546 | 9 | 287 | 4.8 | 12.9 | 0.00 | 2.54 | 2.54 | 95 | 1002.5 |
| 20260507200059 | 9 | 261 | 6.4 | 19.3 | 0.00 | 2.54 | 2.54 | 94 | 1002.6 |
| 20260507194540 | 10 | 157 | 8.0 | 16.1 | 0.03 | 2.54 | 2.54 | 95 | 1002.4 |
| 20260507193045 | 10 | 242 | 6.4 | 17.7 | 0.03 | 2.54 | 2.54 | 95 | 1002.4 |
| 20260507191538 | 10 | 289 | 8.0 | 17.7 | 0.03 | 2.54 | 2.54 | 95 | 1002.2 |
| 20260507190039 | 10 | 262 | 4.8 | 19.3 | 0.00 | 2.54 | 2.51 | 95 | 1002.3 |
| 20260507184541 | 10 | 238 | 11.3 | 24.1 | 0.03 | 2.51 | 2.49 | 94 | 1002.1 |
| 20260507183038 | 12 | 238 | 8.0 | 12.9 | 0.08 | 2.51 | 2.49 | 93 | 1002.1 |
| 20260507181538 | 12 | 207 | 1.6 | 9.7 | 0.20 | 2.51 | 2.49 | 95 | 1001.4 |
| 20260507180050 | 11 | 80 | 6.4 | 12.9 | 0.25 | 2.51 | 2.49 | 95 | 1001.0 |
| 20260507174539 | 11 | 98 | 6.4 | 12.9 | 0.28 | 2.46 | 2.44 | 95 | 1001.4 |
| 20260507173046 | 11 | 124 | 4.8 | 12.9 | 0.36 | 2.41 | 2.39 | 95 | 1002.1 |
| 20260507171541 | 11 | 111 | 6.4 | 12.9 | 0.36 | 2.29 | 2.26 | 95 | 1002.4 |
| 20260507170039 | 11 | 122 | 6.4 | 12.9 | 0.48 | 2.24 | 2.24 | 95 | 1001.9 |
| 20260507164550 | 11 | 129 | 4.8 | 11.3 | 0.53 | 2.18 | 2.16 | 95 | 1002.6 |
| 20260507163038 | 11 | 179 | 3.2 | 11.3 | 0.53 | 2.01 | 1.98 | 95 | 1003.3 |
| 20260507161540 | 11 | 152 | 4.8 | 8.0 | 0.61 | 1.91 | 1.88 | 95 | 1003.6 |
| 20260507160040 | 11 | 150 | 1.6 | 9.7 | 0.69 | 1.75 | 1.73 | 95 | 1003.6 |
| 20260507154550 | 11 | 175 | 4.8 | 9.7 | 0.76 | 1.63 | 1.60 | 95 | 1004.2 |
| 20260507153038 | 11 | 195 | 3.2 | 11.3 | 0.91 | 1.45 | 1.42 | 95 | 1003.8 |
| 20260507151539 | 12 | 153 | 1.6 | 6.4 | 0.94 | 1.27 | 1.24 | 95 | 1004.2 |
| 20260507150043 | 12 | 233 | 3.2 | 12.9 | 0.69 | 1.02 | 1.02 | 95 | 1005.0 |
| 20260507144540 | 12 | 262 | 4.8 | 22.5 | 0.48 | 0.84 | 0.81 | 94 | 1004.9 |
| 20260507143039 | 12 | 225 | 8.0 | 22.5 | 0.18 | 0.53 | 0.51 | 94 | 1004.7 |
| 20260507141542 | 12 | 206 | 16.1 | 29.0 | 0.00 | 0.33 | 0.30 | 93 | 1004.4 |
| 20260507140045 | 12 | 245 | 12.9 | 27.4 | 0.00 | 0.33 | 0.30 | 93 | 1003.8 |
| 20260507134541 | 12 | 159 | 11.3 | 24.1 | 0.00 | 0.33 | 0.30 | 93 | 1003.7 |
| 20260507133055 | 12 | 146 | 12.9 | 29.0 | 0.00 | 0.33 | 0.30 | 93 | 1004.1 |
| 20260507131548 | 12 | 185 | 11.3 | 30.6 | 0.00 | 0.33 | 0.30 | 92 | 1004.4 |
| 20260507130054 | 12 | 164 | 12.9 | 27.4 | 0.00 | 0.33 | 0.30 | 92 | 1004.8 |
| 20260507124537 | 12 | 123 | 12.9 | 27.4 | 0.00 | 0.33 | 0.30 | 92 | 1005.0 |
| 20260507123040 | 12 | 175 | 16.1 | 30.6 | 0.00 | 0.33 | 0.30 | 92 | 1005.2 |